Location: Ahstedt
(52.2048°N, 10.1060°E)
Time: 22:18:35
(UTC+00:00)

SJ 16-02 - Pass Details

Date: 18 January 2026
Orbit: 583 x 594 km, 75.0° (Epoch: 7 February)

Event Time Altitude Azimuth Distance (km) Brightness Sun altitude
Rises 05:06:57 0° 165° (SSE) 2,795 5.0 -19.6°
Reaches altitude 10° 05:09:30 10° 150° (SSE) 1,901 4.4 -19.2°
Maximum altitude 05:12:48 22° 99° (E) 1,287 3.9 -18.7°
Drops below altitude 10° 05:16:06 10° 48° (NE) 1,915 4.4 -18.2°
Sets 05:18:41 0° 34° (NNE) 2,823 5.1 -17.8°
